When you browse on this site, cookies collect data to enhance your experience and personalize the content and advertising you see.
Visit our Privacy Policy to learn more. By continuing to use the site, you agree to this use of cookies and data.
  • In United Kingdom
  • List of Countries
  • For 7 days
  • Water Temperature
  • Weather Map
  • Weather Widgets
  • user-avatar
    Login

    Hourly Weather Pechenizhyn

    Today, 23 August, Friday

    Time Temperature Precipitation Wind Pressure Humidity
    00:00 +19°C° 0 mm 0 mps 740 mmHg 81%
    01:00 +18°C° 0 mm 0 mps 740 mmHg 84%
    02:00 +14°C° 0 mm 0 mps 740 mmHg 99%
    03:00 +18°C° 0 mm 1 mps 739 mmHg 93%
    04:00 +15°C° 0 mm 0 mps 739 mmHg 93%
    05:00 +15°C° 0 mm 0 mps 739 mmHg 93%
    06:00 +15°C° 0 mm 0 mps 740 mmHg 96%
    07:00 +15°C° 0 mm 0 mps 740 mmHg 97%
    08:00 +17°C° 0 mm 0 mps 740 mmHg 94%
    09:00 +20°C° 0 mm 1 mps 740 mmHg 91%
    10:00 +21°C° 0 mm 1 mps 740 mmHg 87%
    11:00 +23°C° 0 mm 1 mps 740 mmHg 83%
    12:00 +24°C° 0 mm 2 mps 740 mmHg 77%
    13:00 +25°C° 0 mm 2 mps 740 mmHg 74%
    14:00 +26°C° 0 mm 2 mps 740 mmHg 73%
    15:00 +26°C° 0 mm 2 mps 740 mmHg 72%
    16:00 +26°C° 0 mm 2 mps 740 mmHg 71%
    17:00 +26°C° 0 mm 2 mps 740 mmHg 71%
    18:00 +26°C° 0 mm 2 mps 740 mmHg 74%
    19:00 +25°C° 0 mm 1 mps 739 mmHg 80%
    20:00 +24°C° 0 mm 1 mps 739 mmHg 78%
    21:00 +23°C° 0 mm 1 mps 739 mmHg 81%
    22:00 +22°C° 0 mm 1 mps 740 mmHg 87%
    23:00 +21°C° 0 mm 1 mps 740 mmHg 92%

    Tomorrow, 24 August, Saturday

    Time Temperature Precipitation Wind Pressure Humidity
    00:00 +21°C° 0 mm 1 mps 740 mmHg 94%
    01:00 +21°C° 0 mm 1 mps 740 mmHg 94%
    02:00 +20°C° 0 mm 1 mps 740 mmHg 97%
    03:00 +20°C° 0 mm 1 mps 739 mmHg 99%
    04:00 +19°C° 0 mm 1 mps 739 mmHg 100%
    05:00 +17°C° 0 mm 0 mps 739 mmHg 100%
    06:00 +16°C° 0 mm 0 mps 739 mmHg 100%
    07:00 +18°C° 0 mm 1 mps 740 mmHg 100%
    08:00 +19°C° 0 mm 1 mps 740 mmHg 99%
    09:00 +20°C° 0 mm 1 mps 740 mmHg 98%
    10:00 +21°C° 0 mm 1 mps 740 mmHg 97%
    11:00 +22°C° 0 mm 1 mps 740 mmHg 95%
    12:00 +23°C° 0 mm 2 mps 740 mmHg 88%
    13:00 +24°C° 0 mm 3 mps 740 mmHg 83%
    14:00 +25°C° 0 mm 3 mps 740 mmHg 79%
    15:00 +25°C° 0 mm 3 mps 739 mmHg 78%
    16:00 +25°C° 0 mm 3 mps 739 mmHg 77%
    17:00 +25°C° 0 mm 3 mps 739 mmHg 78%
    18:00 +25°C° 0 mm 2 mps 739 mmHg 80%
    19:00 +24°C° 0 mm 2 mps 738 mmHg 87%
    20:00 +23°C° 0 mm 1 mps 739 mmHg 89%
    21:00 +22°C° 0 mm 1 mps 739 mmHg 93%
    22:00 +22°C° 0 mm 1 mps 739 mmHg 95%
    23:00 +21°C° 0 mm 1 mps 739 mmHg 94%

    Day after tomorrow, 25 August, Sunday

    Time Temperature Precipitation Wind Pressure Humidity
    00:00 +21°C° 0 mm 1 mps 739 mmHg 96%
    01:00 +20°C° 0 mm 1 mps 739 mmHg 100%
    02:00 +19°C° 0 mm 1 mps 739 mmHg 100%
    03:00 +19°C° 0 mm 1 mps 738 mmHg 100%
    04:00 +19°C° 0 mm 1 mps 738 mmHg 100%
    05:00 +17°C° 0 mm 2 mps 738 mmHg 100%
    06:00 +17°C° 0 mm 2 mps 738 mmHg 100%
    07:00 +17°C° 0 mm 2 mps 739 mmHg 100%
    08:00 +18°C° 0 mm 2 mps 738 mmHg 100%
    09:00 +18°C° 0 mm 2 mps 739 mmHg 100%
    10:00 +20°C° 0 mm 2 mps 739 mmHg 98%
    11:00 +21°C° 0 mm 3 mps 739 mmHg 98%
    12:00 +22°C° 0 mm 4 mps 739 mmHg 95%
    13:00 +23°C° 0 mm 4 mps 739 mmHg 87%
    14:00 +23°C° 0 mm 4 mps 739 mmHg 84%
    15:00 +25°C° 0 mm 4 mps 739 mmHg 79%
    16:00 +25°C° 0 mm 4 mps 738 mmHg 79%
    17:00 +25°C° 0 mm 4 mps 738 mmHg 81%
    18:00 +23°C° 0 mm 4 mps 738 mmHg 87%
    19:00 +22°C° 0 mm 3 mps 738 mmHg 89%
    20:00 +21°C° 0 mm 2 mps 739 mmHg 94%
    21:00 +20°C° 0 mm 2 mps 739 mmHg 98%
    22:00 +21°C° 0 mm 1 mps 739 mmHg 100%
    23:00 +19°C° 0 mm 2 mps 739 mmHg 100%

    26 August, Monday

    Time Temperature Precipitation Wind Pressure Humidity
    00:00 +19°C° 0 mm 2 mps 739 mmHg 100%
    01:00 +19°C° 0 mm 2 mps 739 mmHg 100%
    02:00 +18°C° 0 mm 2 mps 739 mmHg 100%
    03:00 +18°C° 0 mm 2 mps 739 mmHg 100%
    04:00 +18°C° 0 mm 2 mps 738 mmHg 100%
    05:00 +17°C° 0 mm 2 mps 738 mmHg 100%
    06:00 +17°C° 0 mm 2 mps 738 mmHg 100%
    07:00 +17°C° 0 mm 2 mps 739 mmHg 100%
    08:00 +18°C° 0 mm 3 mps 739 mmHg 99%
    09:00 +19°C° 0 mm 4 mps 739 mmHg 99%
    10:00 +20°C° 0 mm 4 mps 739 mmHg 99%
    11:00 +20°C° 0 mm 4 mps 739 mmHg 98%
    12:00 +22°C° 0 mm 4 mps 739 mmHg 97%
    13:00 +22°C° 0 mm 5 mps 739 mmHg 96%
    14:00 +22°C° 0 mm 5 mps 739 mmHg 95%
    15:00 +23°C° 0 mm 5 mps 739 mmHg 93%
    16:00 +23°C° 0 mm 5 mps 738 mmHg 89%
    17:00 +23°C° 0 mm 4 mps 738 mmHg 89%
    18:00 +22°C° 0 mm 4 mps 738 mmHg 88%
    19:00 +22°C° 0 mm 3 mps 738 mmHg 92%
    20:00 +21°C° 0 mm 3 mps 738 mmHg 96%
    21:00 +20°C° 0 mm 2 mps 738 mmHg 98%
    22:00 +20°C° 0 mm 3 mps 738 mmHg 100%
    23:00 +19°C° 0 mm 2 mps 738 mmHg 100%

    27 August, Tuesday

    Time Temperature Precipitation Wind Pressure Humidity
    00:00 +18°C° 0 mm 2 mps 738 mmHg 100%
    01:00 +19°C° 0 mm 1 mps 737 mmHg 100%
    02:00 +19°C° 0 mm 1 mps 737 mmHg 100%

    28 August, Wednesday

    Time Temperature Precipitation Wind Pressure Humidity
    Show more